This demonstration page uses our WeatherBlox Daily Observations layout. Learn more.

Left ArrowRight Arrow

Hourly Observations for March 29, 2020

Temp ( °F °C ) Dew Point ( °F °C ) Humidity (%) Winds ( mph kmh ) Pressure ( in mb ) Visibility ( mi km ) Precip ( " mm )
12:56 am 00:56 Clear 40 4.4 34 1.1 79 79 W 10 17 29.90 1013 10 16 0.00 0.00
1:56 am 01:56 Clear 40 4.4 33 0.6 77 77 W 8 13 29.93 1013 10 16 0.00 0.00
2:56 am 02:56 Clear 37 2.8 32 0 82 82 WNW 7 11 29.92 1013 10 16 0.00 0.00
3:56 am 03:56 Clear 38 3.3 32 0 79 79 W 10 17 29.93 1014 10 16 0.00 0.00
4:56 am 04:56 Clear 37 2.8 31 -0.6 79 79 W 12 19 29.95 1014 10 16 0.00 0.00
5:56 am 05:56 Clear 37 2.8 30 -1.1 76 76 WNW 10 17 29.97 1015 10 16 0.00 0.00
6:56 am 06:56 Clear 37 2.8 30 -1.1 76 76 W 12 19 29.98 1015 10 16 0.00 0.00
7:56 am 07:56 Mostly Sunny 37 2.8 30 -1.1 76 76 WNW 13 20 30.01 1016 10 16 0.00 0.00
8:56 am 08:56 Sunny 40 4.4 31 -0.6 70 70 WNW 14 22 30.03 1017 10 16 0.00 0.00
9:56 am 09:56 Sunny 47 8.3 34 1.1 61 61 WNW 16 26 30.04 1017 10 16 0.00 0.00
10:56 am 10:56 Sunny 52 11.1 34 1.1 50 50 NW 15 24 30.06 1018 10 16 0.00 0.00
11:56 am 11:56 Sunny 55 12.8 34 1.1 45 45 WNW 18 30 30.07 1018 10 16 0.00 0.00
12:56 pm 12:56 Sunny 58 14.4 30 -1.1 35 35 NW 13 20 30.07 1018 10 16 0.00 0.00
1:56 pm 13:56 Partly Cloudy 60 15.6 27 -2.8 28 28 WNW 12 19 30.06 1018 10 16 0.00 0.00
2:56 pm 14:56 Mostly Sunny 60 15.6 27 -2.8 28 28 NNW 13 20 30.06 1018 10 16 0.00 0.00
3:56 pm 15:56 Cloudy 61 16.1 28 -2.2 29 29 W 14 22 30.06 1018 10 16 0.00 0.00
4:56 pm 16:56 Mostly Sunny 61 16.1 28 -2.2 29 29 WNW 12 19 30.07 1018 10 16 0.00 0.00
5:56 pm 17:56 Partly Cloudy 61 16.1 27 -2.8 27 27 Calm 30.06 1018 10 16 0.00 0.00
6:56 pm 18:56 Sunny 60 15.6 28 -2.2 30 30 N 6 9 30.07 1018 10 16 0.00 0.00
7:56 pm 19:56 Sunny 57 13.9 31 -0.6 37 37 SE 5 7 30.09 1019 10 16 0.00 0.00
8:56 pm 20:56 Clear 51 10.6 30 -1.1 44 44 SE 5 7 30.10 1019 10 16 0.00 0.00
9:56 pm 21:56 Clear 46 7.8 32 0 58 58 SE 6 9 30.11 1020 10 16 0.00 0.00
10:56 pm 22:56 Clear 44 6.7 32 0 63 63 SE 3 6 30.12 1020 10 16 0.00 0.00
11:56 pm 23:56 Clear 44 6.7 32 0 63 63 SSE 6 9 30.11 1020 10 16 0.00 0.00

Powered by AerisWeather